Location: Unspecified
(35.6961°N, 0.0000°E)
Time: 06:32:03
(UTC+00:00)

Hubble Space Telescope - Visible Passes

Search period start: 13 August 2020 00:00
Search period end: 23 August 2020 00:00
Orbit: 536 x 540 km, 28.5° (Epoch: 12 August)

Date Brightness Start Highest point End Pass type
(mag) Time Alt. Az. Time Alt. Az. Time Alt. Az.
13 Aug 2.0 03:42:56 26° S 03:43:18 26° S 03:46:46 10° ESE visible
14 Aug 2.0 03:32:50 27° SSE 03:32:50 27° SSE 03:36:05 10° ESE visible
15 Aug 2.2 03:22:46 26° SSE 03:22:46 26° SSE 03:25:21 10° ESE visible
16 Aug 2.6 03:12:47 21° SE 03:12:47 21° SE 03:14:36 10° ESE visible
16 Aug 2.2 04:48:26 10° WSW 04:51:43 23° SSW 04:54:59 10° SE visible
17 Aug 3.1 03:02:51 15° SE 03:02:51 15° SE 03:03:50 10° ESE visible
17 Aug 2.3 04:38:12 12° WSW 04:40:55 20° SSW 04:44:01 10° SE visible
18 Aug 2.4 04:28:24 14° SW 04:30:07 18° SSW 04:32:57 10° SSE visible
19 Aug 2.5 04:18:43 15° SSW 04:19:19 15° SSW 04:21:45 10° SSE visible
20 Aug 2.9 04:09:10 12° S 04:09:10 12° S 04:10:21 10° S visible
